Kenosha, WI

12:12 PM CDT on July 20, 2017 (GMT -0500)
Kenosha Regional

Weather History for KENW - January, 2012

Change the Weather History Date:

Thursday, January 5, 2012

  Actual Average Record
Temperature  
Mean Temperature 36 °F -  
Max Temperature 46 °F 27 °F 50 °F (2007)
Min Temperature 26 °F 11 °F -20 °F (1999)
Degree Days  
Heating Degree Days 29    
Moisture  
Dew Point 26 °F    
Average Humidity 64    
Maximum Humidity 78    
Minimum Humidity 51    
Precipitation  
Precipitation 0.00 in - - ()
Sea Level Pressure  
Sea Level Pressure 29.85 in    
Wind  
Wind Speed 8 mph (SW)    
Max Wind Speed 16 mph    
Max Gust Speed -    
Visibility 10 miles    
Events      
Averages and records for this station are not official NWS values.
T = Trace of Precipitation, MM = Missing Value Source: NWS Daily Summary

Daily Weather History Graph

Daily Weather History Graph

Search for Another Location

Airport or City:

Trip Planner

Search our weather history database for the weather conditions in past years. The results will help you decide how hot, cold, wet, or windy it might be!

Date:

Astronomy

Jan. 05, 2012 Rise Set
Actual Time 7:21 AM CST 4:32 PM CST
Civil Twilight 6:50 AM CST 5:04 PM CST
Nautical Twilight 6:14 AM CST 5:39 PM CST
Astronomical Twilight 5:40 AM CST 6:13 PM CST
Moon 1:35 PM CST (1/5) 4:06 AM CST (1/5)
Length of Visible Light 10h 14m
Length of Day
9h 10m
Waxing Gibbous, 88% of the Moon is Illuminated
Jan 5
Waxing Gibbous
Jan 9
Full
Jan 16
Last Quarter
Jan 23
New
Jan 30
First Quarter

Hourly Weather History & Observations

Time (CST) Temp. Windchill Dew Point Humidity Pressure Visibility Wind Dir Wind Speed Gust Speed Precip Events Conditions
12:53 AM 27.0 °F 20.5 °F 19.0 °F 72% 30.03 in 10.0 mi SW 5.8 mph - N/A   Clear
1:53 AM 27.0 °F 21.6 °F 19.0 °F 72% 30.03 in 10.0 mi SW 4.6 mph - N/A   Clear
2:53 AM 26.1 °F 21.9 °F 19.0 °F 75% 30.02 in 10.0 mi SSW 3.5 mph - N/A   Clear
3:53 AM 26.1 °F 19.4 °F 19.0 °F 75% 29.99 in 10.0 mi SSW 5.8 mph - N/A   Clear
4:53 AM 28.0 °F 20.8 °F 21.0 °F 75% 29.97 in 10.0 mi SSW 6.9 mph - N/A   Clear
5:53 AM 27.0 °F 20.5 °F 21.0 °F 78% 29.97 in 10.0 mi WSW 5.8 mph - N/A   Clear
6:53 AM 28.9 °F 22.8 °F 21.9 °F 75% 29.95 in 10.0 mi SW 5.8 mph - N/A   Clear
7:53 AM 30.0 °F 25.2 °F 23.0 °F 75% 29.95 in 10.0 mi SW 4.6 mph - N/A   Scattered Clouds
8:53 AM 33.1 °F 25.5 °F 24.1 °F 70% 29.94 in 10.0 mi WSW 9.2 mph - N/A   Scattered Clouds
9:53 AM 35.1 °F 28.6 °F 24.1 °F 64% 29.92 in 10.0 mi WSW 8.1 mph - N/A   Scattered Clouds
11:53 AM 41.0 °F 34.7 °F 27.0 °F 57% 29.86 in 10.0 mi WSW 10.4 mph - N/A   Scattered Clouds
12:53 PM 45.0 °F 39.3 °F 28.0 °F 52% 29.84 in 10.0 mi WSW 11.5 mph - N/A   Scattered Clouds
1:53 PM 46.0 °F 40.6 °F 28.9 °F 51% 29.81 in 10.0 mi WSW 11.5 mph - N/A   Scattered Clouds
2:53 PM 46.9 °F - 30.0 °F 52% 29.79 in 10.0 mi WSW 9.2 mph - N/A   Clear
3:53 PM 46.9 °F - 30.0 °F 52% 29.76 in 10.0 mi SW 9.2 mph - N/A   Clear
4:53 PM 45.0 °F 38.5 °F 30.0 °F 56% 29.74 in 10.0 mi SW 13.8 mph - N/A   Clear
5:53 PM 43.0 °F 36.0 °F 30.9 °F 62% 29.73 in 10.0 mi SW 13.8 mph - N/A   Clear
6:53 PM 43.0 °F 36.4 °F 30.9 °F 62% 29.73 in 10.0 mi WSW 12.7 mph - N/A   Clear
7:53 PM 44.1 °F 38.1 °F 30.0 °F 58% 29.70 in 10.0 mi SW 11.5 mph - N/A   Clear
9:53 PM 46.9 °F - 30.0 °F 52% 29.68 in 10.0 mi WSW 15.0 mph - N/A   Clear
10:53 PM 45.0 °F 37.9 °F 30.0 °F 56% 29.66 in 10.0 mi SW 16.1 mph - N/A   Clear
11:53 PM 44.1 °F 38.1 °F 30.0 °F 58% 29.66 in 10.0 mi WSW 11.5 mph - N/A   Clear